Weather History for New York, NY

Change the Weather History Date:

Friday, July 19, 2013

  Actual Average Record
Temperature  
Mean Temperature 93 °F 78 °F  
Max Temperature 100 °F 86 °F 100 °F (2013)
Min Temperature 86 °F 70 °F 62 °F (1962)
Degree Days  
Heating Degree Days 0 0  
Month to date heating degree days 0 0  
Since 1 June heating degree days 4 16  
Since 1 July heating degree days 0 0  
Cooling Degree Days 28 13  
Month to date cooling degree days 350 232  
Year to date cooling degree days 719 529  
Since 1 June cooling degree days 631 463  
Growing Degree Days 43 (Base 50)    
Moisture  
Dew Point 72 °F    
Average Humidity 51    
Maximum Humidity 63    
Minimum Humidity 39    
Precipitation  
Precipitation 0.00 in 0.15 in 1.02 in (1988)
Month to date precipitation 2.07 2.67  
Year to date precipitation 24.64 24.30  
Snow  
Snow 0.00 in 0.00 in - ()
Month to date snowfall 0.0 0.0  
Since 1 July snowfall 0.0 0.0  
Snow Depth 0.00 in    
Sea Level Pressure  
Sea Level Pressure 29.88 in    
Wind  
Wind Speed 12 mph (SW)    
Max Wind Speed 22 mph    
Max Gust Speed 31 mph    
Visibility 10 miles    
Events      
T = Trace of Precipitation, MM = Missing Value Source: NWS Daily Summary

Daily Weather History Graph

Daily Weather History Graph

Search for Another Location

Airport:

Trip Planner

Search our weather history database for the weather conditions in past years. The results will help you decide how hot, cold, wet, or windy it might be!

Date:

Astronomy

Jul. 19, 2013 Rise Set
Actual Time 5:40 AM EDT 8:22 PM EDT
Civil Twilight 5:08 AM EDT 8:54 PM EDT
Nautical Twilight 4:28 AM EDT 9:34 PM EDT
Astronomical Twilight 3:42 AM EDT 10:20 PM EDT
Moon 5:22 PM EDT (7/19) 2:19 AM EDT (7/19)
Length of Visible Light 15h 46m
Length of Day
14h 42m
Waxing Gibbous, 86% of the Moon is Illuminated
Jul 19
Waxing Gibbous
Jul 22
Full
Jul 29
Last Quarter
Aug 6
New
Aug 14
First Quarter

Hourly Weather History & Observations

Time (EDT) Temp. Heat Index Dew Point Humidity Pressure Visibility Wind Dir Wind Speed Gust Speed Precip Events Conditions
12:51 AM 90.0 °F 96.4 °F 71.1 °F 54% 29.96 in 10.0 mi SW 10.4 mph - N/A   Scattered Clouds
1:51 AM 88.0 °F 94.7 °F 72.0 °F 59% 29.96 in 10.0 mi SSW 8.1 mph - N/A   Scattered Clouds
2:51 AM 87.1 °F 94.5 °F 73.0 °F 63% 29.96 in 10.0 mi SW 8.1 mph - N/A   Scattered Clouds
3:51 AM 87.1 °F 94.5 °F 73.0 °F 63% 29.95 in 10.0 mi SW 6.9 mph - N/A   Scattered Clouds
4:51 AM 87.1 °F 92.8 °F 71.1 °F 59% 29.94 in 10.0 mi WSW 5.8 mph - N/A   Scattered Clouds
5:51 AM 86.0 °F 91.5 °F 71.1 °F 61% 29.94 in 10.0 mi SSW 9.2 mph - N/A   Mostly Cloudy
6:51 AM 87.1 °F 92.8 °F 71.1 °F 59% 29.94 in 10.0 mi SSW 8.1 mph - N/A   Scattered Clouds
7:51 AM 87.1 °F 94.5 °F 73.0 °F 63% 29.95 in 9.0 mi SSW 8.1 mph - N/A   Partly Cloudy
8:51 AM 90.0 °F 96.9 °F 72.0 °F 55% 29.94 in 9.0 mi SW 8.1 mph - N/A   Partly Cloudy
9:51 AM 93.0 °F 101.9 °F 73.0 °F 52% 29.94 in 9.0 mi SW 9.2 mph - N/A   Clear
10:51 AM 95.0 °F 104.5 °F 73.0 °F 49% 29.93 in 9.0 mi SW 10.4 mph - N/A   Partly Cloudy
11:51 AM 95.0 °F 103.2 °F 72.0 °F 47% 29.91 in 9.0 mi SW 10.4 mph - N/A   Scattered Clouds
12:51 PM 96.1 °F 102.9 °F 70.0 °F 43% 29.89 in 10.0 mi SW 17.3 mph 25.3 mph N/A   Mostly Cloudy
1:51 PM 98.1 °F 104.4 °F 69.1 °F 39% 29.87 in 10.0 mi WSW 16.1 mph 28.8 mph N/A   Scattered Clouds
2:51 PM 98.1 °F 105.0 °F 70.0 °F 40% 29.85 in 10.0 mi SW 13.8 mph 21.9 mph N/A   Scattered Clouds
3:51 PM 99.0 °F 105.5 °F 69.1 °F 38% 29.83 in 10.0 mi WSW 16.1 mph 25.3 mph N/A   Scattered Clouds
4:51 PM 99.0 °F 105.5 °F 69.1 °F 38% 29.80 in 10.0 mi SW 15.0 mph 23.0 mph N/A   Scattered Clouds
5:51 PM 97.0 °F 103.5 °F 70.0 °F 41% 29.78 in 10.0 mi SW 18.4 mph 26.5 mph N/A   Scattered Clouds
6:51 PM 95.0 °F 103.2 °F 72.0 °F 47% 29.79 in 10.0 mi SW 15.0 mph 25.3 mph N/A   Scattered Clouds
7:51 PM 93.9 °F 102.1 °F 72.0 °F 49% 29.80 in 9.0 mi SW 11.5 mph - N/A   Scattered Clouds
8:51 PM 93.0 °F 101.9 °F 73.0 °F 52% 29.82 in 10.0 mi SW 12.7 mph - N/A   Scattered Clouds
9:51 PM 91.0 °F 99.3 °F 73.0 °F 55% 29.83 in 10.0 mi SW 13.8 mph 21.9 mph N/A   Scattered Clouds
10:51 PM 90.0 °F 96.9 °F 72.0 °F 55% 29.81 in 10.0 mi WSW 11.5 mph 21.9 mph N/A   Scattered Clouds
11:51 PM 89.1 °F 97.0 °F 73.0 °F 59% 29.80 in 9.0 mi SW 13.8 mph 19.6 mph N/A   Mostly Cloudy